This is the latest recevied weather packets stored in our database for station/object GBTWP-2. If no packets are shown the sender has not sent any weather packets the latest 10 day(s).
| Time | Temp. | Humidity | Pressure | Rain* | Wind** | Luminosity | Snow |
|---|---|---|---|---|---|---|---|
| 1787403119 | 16.67° C | 96% | 1015.6 hPa | 1.27 mm | - | 12 W/m² | - |
| 1787402819 | 17.22° C | 96% | 1015.7 hPa | 0 mm | - | 8 W/m² | - |
| 1787402520 | 17.22° C | 96% | 1015.8 hPa | 0 mm | - | 6 W/m² | - |
| 1787402219 | 17.22° C | 96% | 1015.6 hPa | 0 mm | - | 4 W/m² | - |
| 1787401920 | 17.22° C | 95% | 1016 hPa | 0 mm | - | 4 W/m² | - |
| 1787401619 | 17.22° C | 95% | 1015.8 hPa | 0 mm | - | 3 W/m² | - |
| 1787401319 | 17.22° C | 95% | 1015.7 hPa | 0 mm | - | 2 W/m² | - |
| 1787401018 | 17.22° C | 95% | 1015.7 hPa | 1.78 mm | - | 2 W/m² | - |
| 1787400719 | 17.22° C | 95% | 1015.7 hPa | 1.78 mm | - | 2 W/m² | - |
| 1787400419 | 17.22° C | 95% | 1015.9 hPa | 1.78 mm | - | 2 W/m² | - |
| 1787400119 | 17.22° C | 94% | 1016.1 hPa | 1.27 mm | - | 2 W/m² | - |
| 1787399820 | 17.22° C | 94% | 1016 hPa | 3.05 mm | - | 2 W/m² | - |
| 1787399519 | 17.22° C | 94% | 1016.1 hPa | 4.83 mm | - | 1 W/m² | - |
| 1787399220 | 17.22° C | 93% | 1016.1 hPa | 4.83 mm | - | 1 W/m² | - |
| 1787398918 | 17.22° C | 93% | 1016 hPa | 6.6 mm | - | 1 W/m² | - |
| 1787398619 | 17.78° C | 93% | 1016 hPa | 6.1 mm | - | 1 W/m² | - |
| 1787398319 | 17.78° C | 92% | 1015.9 hPa | 4.32 mm | - | 1 W/m² | - |
| 1787398019 | 17.78° C | 91% | 1016.1 hPa | 3.05 mm | - | 1 W/m² | - |
| 1787397719 | 17.78° C | 90% | 1016.1 hPa | 1.78 mm | - | 1 W/m² | - |
| 1787397420 | 18.33° C | 89% | 1015.9 hPa | 0 mm | - | 0 W/m² | - |
| 1787397120 | 18.33° C | 89% | 1016 hPa | 0 mm | - | 0 W/m² | - |
| 1787396819 | 18.33° C | 89% | 1016.2 hPa | 0 mm | - | 0 W/m² | - |
| 1787396520 | 18.33° C | 89% | 1016.2 hPa | 0 mm | - | 0 W/m² | - |
| 1787396220 | 18.33° C | 89% | 1016.3 hPa | 0 mm | - | 0 W/m² | - |
| 1787395920 | 18.33° C | 89% | 1016.2 hPa | 0 mm | - | 0 W/m² | - |
* Rain latest hour (hover to see other rain measurements)
** Current wind speed in m/s (hover to see current wind gust speed)